QPF
0.00 0.00 0.01 0.03 0.05 0.04 0.03 0.02 0.02 0.02 0.01 0.02 0.03 0.03 0.01 0.01 0.02 0.02 0.02 0.03 0.05 0.05 0.06 0.07 0.06 0.04 0.03 0.04 0.03 0.02 0.03 0.02 0.02 0.02 0.01 0.01 0.02 0.02 0.02 0.02 0.02 0.02 0.02
0.00 0.01 0.01 0.02 0.04 0.04 0.05 0.04 0.02 0.02 0.02 0.02 0.03 0.02 0.02 0.02 0.02 0.02 0.02 0.02 0.04 0.04 0.04 0.06 0.07 0.08 0.06 0.08 0.07 0.06 0.05 0.04 0.04 0.03 0.01 0.02 0.02 0.02 0.02 0.03 0.02 0.02 0.01
0.01 0.01 0.01 0.01 0.03 0.03 0.03 0.04 0.04 0.03 0.02 0.03 0.03 0.02 0.02 0.02 0.02 0.03 0.03 0.02 0.02 0.03 0.05 0.06 0.07 0.07 0.07 0.08 0.08 0.07 0.06 0.06 0.04 0.02 0.01 0.02 0.02 0.02 0.02 0.02 0.02 0.01 0.01
0.02 0.02 0.02 0.02 0.02 0.02 0.02 0.03 0.04 0.03 0.03 0.03 0.02 0.02 0.02 0.02 0.02 0.03 0.03 0.03 0.02 0.02 0.04 0.06 0.06 0.05 0.07 0.07 0.07 0.07 0.05 0.05 0.04 0.04 0.03 0.03 0.02 0.01 0.01 0.01 0.01 0.01 0.01
0.05 0.06 0.05 0.05 0.05 0.04 0.04 0.03 0.03 0.03 0.03 0.03 0.03 0.02 0.01 0.02 0.03 0.02 0.02 0.02 0.03 0.03 0.03 0.04 0.06 0.05 0.06 0.09 0.12 0.09 0.07 0.07 0.07 0.06 0.04 0.03 0.02 0.01 0.01 0.01 0.01 0.01 0.00
0.07 0.08 0.08 0.09 0.08 0.07 0.06 0.06 0.05 0.03 0.02 0.04 0.04 0.03 0.02 0.01 0.03 0.03 0.03 0.03 0.02 0.02 0.04 0.03 0.04 0.04 0.06 0.07 0.09 0.11 0.11 0.10 0.08 0.05 0.04 0.05 0.04 0.03 0.02 0.01 0.01 0.01 0.01
0.09 0.09 0.07 0.09 0.09 0.08 0.08 0.09 0.07 0.05 0.03 0.05 0.06 0.05 0.03 0.02 0.02 0.02 0.03 0.03 0.03 0.03 0.04 0.05 0.04 0.03 0.03 0.04 0.06 0.09 0.12 0.13 0.12 0.10 0.07 0.06 0.05 0.03 0.02 0.02 0.01 0.01 0.01
0.08 0.08 0.08 0.08 0.09 0.07 0.07 0.10 0.09 0.06 0.05 0.07 0.06 0.07 0.05 0.02 0.01 0.01 0.01 0.02 0.03 0.03 0.03 0.04 0.05 0.04 0.03 0.05 0.05 0.05 0.08 0.12 0.14 0.12 0.10 0.09 0.06 0.04 0.03 0.03 0.03 0.03 0.03
0.07 0.08 0.09 0.09 0.07 0.06 0.06 0.08 0.07 0.06 0.06 0.06 0.07 0.07 0.06 0.04 0.02 0.01 0.01 0.01 0.02 0.02 0.02 0.02 0.04 0.04 0.05 0.05 0.05 0.05 0.06 0.08 0.11 0.14 0.14 0.13 0.10 0.08 0.06 0.05 0.04 0.03 0.02
0.05 0.05 0.06 0.09 0.10 0.07 0.05 0.06 0.07 0.06 0.07 0.08 0.09 0.08 0.07 0.05 0.05 0.03 0.02 0.01 0.01 0.01 0.02 0.02 0.02 0.02 0.03 0.03 0.03 0.04 0.05 0.04 0.07 0.11 0.13 0.14 0.12 0.09 0.08 0.07 0.07 0.06 0.04
0.04 0.04 0.05 0.06 0.09 0.08 0.06 0.06 0.07 0.07 0.07 0.08 0.11 0.11 0.09 0.06 0.04 0.04 0.03 0.02 0.02 0.02 0.02 0.02 0.02 0.02 0.03 0.04 0.03 0.04 0.05 0.05 0.06 0.06 0.09 0.11 0.12 0.12 0.11 0.11 0.10 0.11 0.09
0.03 0.03 0.03 0.05 0.08 0.08 0.06 0.04 0.04 0.04 0.04 0.04 0.06 0.07 0.08 0.08 0.08 0.06 0.04 0.03 0.03 0.02 0.02 0.02 0.02 0.02 0.03 0.04 0.04 0.04 0.06 0.07 0.09 0.10 0.08 0.07 0.09 0.10 0.12 0.11 0.12 0.13 0.13
0.02 0.04 0.05 0.06 0.07 0.08 0.06 0.05 0.05 0.05 0.05 0.04 0.04 0.04 0.05 0.06 0.07 0.07 0.06 0.04 0.03 0.02 0.01 0.01 0.01 0.01 0.02 0.03 0.04 0.06 0.07 0.09 0.10 0.10 0.10 0.09 0.09 0.09 0.11 0.12 0.13 0.13 0.12
0.03 0.04 0.04 0.06 0.07 0.07 0.07 0.07 0.06 0.05 0.06 0.05 0.05 0.05 0.05 0.06 0.07 0.07 0.06 0.06 0.04 0.02 0.01 0.01 0.02 0.03 0.03 0.02 0.03 0.06 0.07 0.08 0.10 0.10 0.10 0.10 0.11 0.11 0.11 0.11 0.12 0.12 0.12
0.03 0.03 0.03 0.04 0.04 0.06 0.07 0.07 0.05 0.05 0.04 0.04 0.04 0.05 0.04 0.04 0.05 0.06 0.06 0.07 0.05 0.03 0.02 0.03 0.03 0.03 0.03 0.03 0.04 0.04 0.04 0.07 0.09 0.09 0.10 0.12 0.13 0.12 0.11 0.10 0.10 0.10 0.10
0.05 0.04 0.03 0.03 0.02 0.03 0.03 0.03 0.04 0.05 0.04 0.04 0.05 0.05 0.04 0.04 0.05 0.06 0.07 0.07 0.07 0.06 0.04 0.05 0.03 0.03 0.04 0.05 0.05 0.05 0.04 0.06 0.07 0.08 0.10 0.11 0.12 0.11 0.11 0.12 0.13 0.12 0.12
0.02 0.04 0.04 0.04 0.03 0.02 0.02 0.02 0.02 0.04 0.03 0.04 0.05 0.05 0.05 0.07 0.08 0.08 0.08 0.08 0.08 0.07 0.05 0.05 0.05 0.04 0.04 0.04 0.05 0.06 0.06 0.06 0.06 0.07 0.08 0.08 0.09 0.10 0.12 0.12 0.13 0.13 0.13
0.01 0.01 0.02 0.03 0.03 0.04 0.04 0.03 0.02 0.03 0.03 0.04 0.05 0.05 0.06 0.08 0.08 0.08 0.07 0.07 0.07 0.08 0.06 0.04 0.04 0.04 0.03 0.03 0.03 0.04 0.04 0.04 0.05 0.06 0.07 0.08 0.09 0.09 0.10 0.11 0.12 0.14 0.14
0.02 0.02 0.02 0.02 0.02 0.04 0.03 0.02 0.02 0.03 0.04 0.03 0.03 0.04 0.06 0.06 0.06 0.05 0.06 0.06 0.07 0.07 0.06 0.05 0.04 0.04 0.04 0.04 0.04 0.04 0.03 0.04 0.04 0.05 0.06 0.06 0.07 0.07 0.08 0.11 0.14 0.15 0.14
0.04 0.03 0.03 0.02 0.02 0.01 0.01 0.01 0.01 0.01 0.02 0.02 0.02 0.03 0.04 0.05 0.06 0.06 0.06 0.06 0.07 0.07 0.07 0.06 0.05 0.05 0.06 0.06 0.06 0.06 0.06 0.06 0.06 0.06 0.07 0.06 0.06 0.07 0.08 0.09 0.10 0.11 0.12
0.05 0.04 0.04 0.02 0.02 0.01 0.01 0.01 0.02 0.02 0.02 0.02 0.02 0.02 0.03 0.03 0.03 0.04 0.05 0.06 0.06 0.06 0.07 0.08 0.07 0.07 0.07 0.08 0.09 0.08 0.07 0.06 0.05 0.04 0.04 0.04 0.05 0.05 0.05 0.05 0.05 0.07 0.09
0.05 0.04 0.03 0.02 0.02 0.02 0.02 0.02 0.01 0.01 0.02 0.02 0.02 0.02 0.02 0.02 0.02 0.02 0.03 0.04 0.06 0.06 0.06 0.05 0.04 0.04 0.04 0.04 0.04 0.04 0.04 0.04 0.04 0.03 0.03 0.03 0.03 0.03 0.03 0.03 0.04 0.04 0.05
0.03 0.03 0.03 0.03 0.03 0.03 0.02 0.02 0.02 0.02 0.02 0.02 0.02 0.02 0.02 0.02 0.02 0.02 0.02 0.04 0.05 0.06 0.07 0.07 0.06 0.06 0.05 0.05 0.05 0.05 0.04 0.04 0.05 0.05 0.04 0.02 0.02 0.02 0.02 0.02 0.03 0.03 0.02
0.03 0.03 0.03 0.03 0.03 0.03 0.03 0.03 0.03 0.02 0.02 0.02 0.02 0.02 0.02 0.02 0.02 0.03 0.03 0.03 0.03 0.05 0.07 0.07 0.06 0.06 0.06 0.06 0.06 0.06 0.06 0.06 0.05 0.04 0.03 0.03 0.02 0.01 0.01 0.01 0.02 0.02 0.02
0.03 0.03 0.03 0.03 0.02 0.03 0.04 0.04 0.02 0.02 0.02 0.01 0.01 0.02 0.02 0.02 0.03 0.05 0.04 0.04 0.04 0.04 0.06 0.06 0.06 0.05 0.06 0.06 0.07 0.07 0.06 0.06 0.06 0.05 0.05 0.05 0.03 0.03 0.02 0.02 0.02 0.03 0.03
0.04 0.03 0.03 0.02 0.02 0.02 0.03 0.03 0.02 0.01 0.01 0.01 0.02 0.02 0.03 0.04 0.04 0.05 0.05 0.05 0.06 0.06 0.07 0.07 0.06 0.05 0.05 0.07 0.10 0.10 0.09 0.09 0.09 0.09 0.11 0.11 0.09 0.08 0.06 0.04 0.03 0.03 0.03
MSLP
1016.43 1016.57 1016.66 1016.73 1016.80 1016.91 1017.07 1017.29 1017.56 1017.84 1018.11 1018.34 1018.52 1018.65 1018.75 1018.84 1018.94 1019.08 1019.27 1019.49 1019.74 1019.98 1020.20 1020.38 1020.52 1020.62 1020.69 1020.76 1020.83 1020.92 1021.03 1021.16 1021.32 1021.48 1021.65 1021.82 1021.98 1022.13 1022.28 1022.42 1022.55 1022.66 1022.76
1016.80 1016.95 1017.04 1017.10 1017.16 1017.24 1017.37 1017.55 1017.77 1018.01 1018.24 1018.44 1018.59 1018.68 1018.75 1018.79 1018.85 1018.95 1019.10 1019.29 1019.52 1019.77 1020.01 1020.22 1020.39 1020.52 1020.61 1020.67 1020.73 1020.80 1020.89 1021.01 1021.15 1021.31 1021.49 1021.67 1021.85 1022.02 1022.17 1022.31 1022.43 1022.54 1022.63
1017.11 1017.27 1017.37 1017.44 1017.50 1017.58 1017.68 1017.83 1018.01 1018.21 1018.40 1018.56 1018.67 1018.73 1018.76 1018.77 1018.78 1018.82 1018.92 1019.07 1019.26 1019.49 1019.73 1019.95 1020.14 1020.29 1020.40 1020.48 1020.54 1020.60 1020.67 1020.77 1020.90 1021.05 1021.23 1021.42 1021.61 1021.79 1021.96 1022.10 1022.22 1022.32 1022.42
1017.34 1017.52 1017.64 1017.74 1017.81 1017.89 1017.99 1018.11 1018.25 1018.41 1018.56 1018.69 1018.77 1018.81 1018.80 1018.77 1018.73 1018.72 1018.75 1018.83 1018.97 1019.15 1019.36 1019.57 1019.77 1019.94 1020.06 1020.15 1020.22 1020.28 1020.34 1020.42 1020.54 1020.68 1020.86 1021.05 1021.24 1021.43 1021.60 1021.75 1021.88 1022.00 1022.10
1017.48 1017.67 1017.83 1017.96 1018.07 1018.17 1018.26 1018.37 1018.49 1018.61 1018.73 1018.83 1018.89 1018.90 1018.87 1018.81 1018.73 1018.66 1018.62 1018.62 1018.68 1018.79 1018.94 1019.12 1019.29 1019.45 1019.58 1019.68 1019.76 1019.82 1019.88 1019.95 1020.06 1020.19 1020.36 1020.55 1020.74 1020.94 1021.12 1021.28 1021.42 1021.54 1021.65
1017.51 1017.73 1017.92 1018.10 1018.25 1018.37 1018.48 1018.58 1018.68 1018.78 1018.87 1018.95 1019.00 1019.01 1018.97 1018.89 1018.78 1018.66 1018.55 1018.47 1018.43 1018.45 1018.51 1018.62 1018.75 1018.88 1019.00 1019.09 1019.17 1019.23 1019.29 1019.37 1019.46 1019.59 1019.75 1019.93 1020.13 1020.32 1020.51 1020.68 1020.82 1020.95 1021.08
1017.46 1017.69 1017.93 1018.15 1018.34 1018.50 1018.62 1018.72 1018.81 1018.89 1018.97 1019.04 1019.09 1019.11 1019.09 1019.01 1018.89 1018.73 1018.55 1018.38 1018.24 1018.15 1018.11 1018.12 1018.17 1018.25 1018.34 1018.42 1018.50 1018.56 1018.62 1018.70 1018.79 1018.91 1019.06 1019.24 1019.43 1019.62 1019.81 1019.98 1020.13 1020.26 1020.39
1017.35 1017.59 1017.86 1018.11 1018.34 1018.53 1018.67 1018.77 1018.85 1018.92 1018.99 1019.07 1019.14 1019.19 1019.20 1019.15 1019.03 1018.85 1018.62 1018.38 1018.13 1017.92 1017.76 1017.66 1017.62 1017.63 1017.67 1017.73 1017.79 1017.85 1017.91 1017.98 1018.07 1018.19 1018.33 1018.50 1018.69 1018.88 1019.06 1019.23 1019.37 1019.50 1019.62
1017.21 1017.45 1017.72 1018.01 1018.26 1018.46 1018.61 1018.71 1018.79 1018.85 1018.93 1019.03 1019.13 1019.22 1019.27 1019.26 1019.17 1018.99 1018.73 1018.41 1018.08 1017.76 1017.48 1017.27 1017.13 1017.05 1017.03 1017.05 1017.09 1017.15 1017.21 1017.27 1017.36 1017.47 1017.61 1017.77 1017.94 1018.13 1018.30 1018.46 1018.60 1018.71 1018.81
1017.05 1017.28 1017.55 1017.84 1018.10 1018.31 1018.45 1018.55 1018.61 1018.68 1018.76 1018.88 1019.01 1019.15 1019.26 1019.30 1019.25 1019.08 1018.80 1018.45 1018.04 1017.63 1017.25 1016.93 1016.70 1016.55 1016.47 1016.45 1016.47 1016.51 1016.56 1016.62 1016.70 1016.80 1016.92 1017.07 1017.23 1017.40 1017.57 1017.72 1017.84 1017.93 1018.01
1016.89 1017.09 1017.35 1017.62 1017.87 1018.07 1018.20 1018.28 1018.33 1018.39 1018.48 1018.61 1018.78 1018.96 1019.12 1019.22 1019.21 1019.06 1018.79 1018.42 1017.97 1017.49 1017.04 1016.65 1016.34 1016.13 1016.01 1015.95 1015.94 1015.97 1016.01 1016.06 1016.12 1016.21 1016.31 1016.44 1016.59 1016.74 1016.89 1017.03 1017.13 1017.21 1017.26
1016.72 1016.89 1017.12 1017.36 1017.58 1017.75 1017.86 1017.92 1017.95 1017.99 1018.08 1018.22 1018.41 1018.63 1018.83 1018.97 1019.01 1018.90 1018.65 1018.28 1017.82 1017.32 1016.83 1016.40 1016.05 1015.80 1015.65 1015.57 1015.54 1015.55 1015.58 1015.61 1015.65 1015.71 1015.79 1015.90 1016.02 1016.16 1016.29 1016.42 1016.51 1016.57 1016.61
1016.53 1016.66 1016.86 1017.06 1017.24 1017.38 1017.45 1017.48 1017.49 1017.51 1017.58 1017.72 1017.92 1018.15 1018.38 1018.56 1018.63 1018.57 1018.35 1018.01 1017.57 1017.09 1016.60 1016.17 1015.82 1015.57 1015.41 1015.32 1015.28 1015.28 1015.28 1015.29 1015.31 1015.34 1015.39 1015.46 1015.56 1015.67 1015.79 1015.90 1015.99 1016.04 1016.06
1016.29 1016.40 1016.55 1016.72 1016.86 1016.96 1017.00 1017.00 1016.98 1016.97 1017.02 1017.14 1017.33 1017.57 1017.81 1018.00 1018.11 1018.08 1017.92 1017.63 1017.24 1016.80 1016.37 1015.97 1015.65 1015.43 1015.28 1015.20 1015.16 1015.15 1015.13 1015.12 1015.10 1015.10 1015.11 1015.14 1015.20 1015.29 1015.39 1015.49 1015.57 1015.62 1015.65
1015.99 1016.08 1016.21 1016.35 1016.46 1016.52 1016.54 1016.51 1016.46 1016.43 1016.46 1016.55 1016.72 1016.93 1017.16 1017.36 1017.49 1017.50 1017.39 1017.16 1016.85 1016.49 1016.13 1015.81 1015.55 1015.37 1015.26 1015.20 1015.17 1015.15 1015.12 1015.08 1015.03 1014.98 1014.95 1014.94 1014.97 1015.03 1015.10 1015.19 1015.26 1015.32 1015.35
1015.65 1015.73 1015.84 1015.96 1016.05 1016.10 1016.10 1016.06 1015.99 1015.94 1015.94 1016.00 1016.12 1016.31 1016.52 1016.71 1016.84 1016.88 1016.83 1016.68 1016.45 1016.19 1015.92 1015.69 1015.51 1015.39 1015.33 1015.30 1015.28 1015.26 1015.21 1015.15 1015.06 1014.97 1014.90 1014.86 1014.84 1014.87 1014.92 1014.99 1015.06 1015.12 1015.15
1015.25 1015.34 1015.45 1015.57 1015.66 1015.72 1015.72 1015.67 1015.60 1015.54 1015.51 1015.53 1015.62 1015.76 1015.93 1016.10 1016.24 1016.30 1016.30 1016.21 1016.08 1015.91 1015.75 1015.61 1015.51 1015.46 1015.45 1015.45 1015.45 1015.43 1015.37 1015.28 1015.17 1015.06 1014.95 1014.87 1014.82 1014.81 1014.83 1014.88 1014.94 1014.99 1015.03
1014.82 1014.92 1015.05 1015.19 1015.31 1015.38 1015.40 1015.37 1015.31 1015.24 1015.18 1015.17 1015.22 1015.31 1015.45 1015.59 1015.71 1015.79 1015.83 1015.81 1015.75 1015.68 1015.60 1015.55 1015.54 1015.55 1015.58 1015.61 1015.62 1015.60 1015.54 1015.44 1015.31 1015.18 1015.04 1014.93 1014.86 1014.82 1014.81 1014.83 1014.87 1014.91 1014.95
1014.37 1014.50 1014.66 1014.83 1014.98 1015.09 1015.14 1015.14 1015.09 1015.01 1014.94 1014.91 1014.91 1014.96 1015.05 1015.16 1015.27 1015.36 1015.43 1015.46 1015.47 1015.47 1015.47 1015.49 1015.53 1015.59 1015.66 1015.71 1015.74 1015.72 1015.67 1015.57 1015.44 1015.29 1015.15 1015.03 1014.93 1014.86 1014.83 1014.82 1014.83 1014.85 1014.88
1013.89 1014.05 1014.25 1014.46 1014.66 1014.81 1014.90 1014.92 1014.89 1014.83 1014.75 1014.69 1014.66 1014.67 1014.72 1014.80 1014.90 1014.99 1015.07 1015.14 1015.20 1015.26 1015.32 1015.39 1015.48 1015.57 1015.66 1015.73 1015.76 1015.76 1015.71 1015.63 1015.51 1015.37 1015.24 1015.11 1015.01 1014.92 1014.86 1014.82 1014.80 1014.79 1014.79
1013.38 1013.58 1013.82 1014.07 1014.31 1014.50 1014.63 1014.68 1014.67 1014.61 1014.53 1014.46 1014.40 1014.39 1014.41 1014.47 1014.55 1014.64 1014.74 1014.84 1014.94 1015.04 1015.14 1015.25 1015.36 1015.47 1015.57 1015.65 1015.70 1015.70 1015.67 1015.61 1015.51 1015.40 1015.29 1015.18 1015.07 1014.98 1014.90 1014.84 1014.78 1014.73 1014.69
1012.83 1013.06 1013.34 1013.63 1013.91 1014.13 1014.29 1014.37 1014.37 1014.33 1014.25 1014.16 1014.10 1014.07 1014.08 1014.13 1014.20 1014.31 1014.42 1014.55 1014.67 1014.80 1014.93 1015.06 1015.19 1015.31 1015.42 1015.50 1015.56 1015.58 1015.57 1015.53 1015.47 1015.40 1015.31 1015.22 1015.13 1015.04 1014.95 1014.85 1014.76 1014.67 1014.59
1012.23 1012.51 1012.81 1013.13 1013.43 1013.67 1013.85 1013.94 1013.97 1013.93 1013.87 1013.79 1013.73 1013.70 1013.72 1013.77 1013.86 1013.98 1014.12 1014.27 1014.42 1014.58 1014.73 1014.88 1015.02 1015.15 1015.26 1015.35 1015.41 1015.45 1015.46 1015.45 1015.42 1015.38 1015.33 1015.27 1015.20 1015.11 1015.01 1014.89 1014.76 1014.63 1014.51
1011.62 1011.92 1012.25 1012.58 1012.88 1013.13 1013.32 1013.43 1013.47 1013.45 1013.41 1013.35 1013.32 1013.31 1013.35 1013.43 1013.54 1013.69 1013.86 1014.04 1014.23 1014.42 1014.60 1014.76 1014.92 1015.05 1015.17 1015.26 1015.33 1015.38 1015.40 1015.42 1015.42 1015.41 1015.38 1015.35 1015.29 1015.21 1015.10 1014.97 1014.81 1014.64 1014.47
1011.04 1011.35 1011.69 1012.02 1012.32 1012.57 1012.75 1012.87 1012.93 1012.94 1012.93 1012.91 1012.92 1012.96 1013.03 1013.15 1013.31 1013.50 1013.71 1013.93 1014.15 1014.37 1014.58 1014.77 1014.94 1015.08 1015.20 1015.30 1015.37 1015.42 1015.46 1015.48 1015.49 1015.50 1015.49 1015.47 1015.42 1015.34 1015.23 1015.09 1014.91 1014.71 1014.51
1010.54 1010.87 1011.20 1011.52 1011.81 1012.04 1012.22 1012.35 1012.43 1012.47 1012.50 1012.54 1012.60 1012.69 1012.82 1012.99 1013.20 1013.43 1013.68 1013.95 1014.21 1014.46 1014.70 1014.92 1015.10 1015.26 1015.39 1015.49 1015.55 1015.60 1015.63 1015.65 1015.66 1015.66 1015.66 1015.63 1015.59 1015.51 1015.39 1015.24 1015.05 1014.83 1014.61
Thickness
5742 5742 5741 5741 5741 5741 5741 5741 5740 5740 5740 5739 5739 5739 5739 5739 5739 5739 5738 5738 5738 5737 5736 5735 5734 5733 5732 5731 5729 5727 5726 5725 5723 5722 5721 5720 5718 5717 5716 5714 5713 5712 5711
5742 5742 5741 5741 5740 5740 5740 5740 5740 5740 5739 5739 5739 5739 5740 5740 5740 5739 5739 5739 5739 5738 5737 5736 5735 5734 5732 5731 5729 5728 5726 5725 5724 5722 5721 5720 5718 5717 5716 5714 5713 5712 5710
5743 5742 5741 5741 5740 5740 5740 5740 5739 5739 5739 5739 5739 5740 5740 5740 5740 5740 5740 5740 5739 5739 5738 5737 5736 5735 5733 5731 5730 5729 5727 5726 5724 5723 5721 5720 5718 5717 5716 5714 5713 5712 5710
5744 5743 5741 5741 5740 5740 5739 5739 5739 5738 5738 5738 5739 5740 5741 5741 5741 5741 5740 5740 5740 5739 5739 5738 5737 5736 5734 5733 5731 5730 5728 5727 5725 5724 5722 5720 5719 5717 5716 5714 5713 5712 5710
5744 5742 5742 5741 5740 5740 5739 5739 5739 5738 5737 5738 5739 5740 5741 5741 5741 5741 5741 5741 5740 5740 5739 5739 5738 5737 5735 5734 5732 5731 5729 5728 5726 5725 5723 5721 5719 5718 5716 5714 5713 5711 5710
5745 5743 5742 5742 5740 5740 5739 5739 5738 5738 5737 5737 5738 5739 5740 5741 5741 5741 5742 5741 5741 5740 5740 5739 5738 5737 5736 5735 5734 5733 5731 5730 5728 5726 5724 5722 5720 5718 5716 5715 5713 5711 5710
5747 5745 5743 5742 5741 5740 5739 5738 5737 5736 5736 5737 5734 5734 5737 5740 5740 5741 5741 5741 5741 5740 5739 5739 5738 5737 5737 5736 5735 5734 5733 5731 5729 5727 5726 5724 5722 5720 5718 5716 5714 5712 5710
5748 5746 5745 5743 5742 5741 5739 5739 5737 5735 5735 5735 5732 5728 5727 5731 5737 5741 5740 5740 5740 5739 5739 5738 5738 5737 5737 5736 5736 5735 5733 5732 5730 5729 5727 5725 5723 5721 5719 5716 5714 5712 5710
5750 5749 5747 5746 5744 5742 5740 5739 5738 5736 5733 5734 5734 5729 5723 5722 5728 5735 5737 5738 5738 5738 5738 5738 5738 5737 5736 5736 5735 5735 5734 5733 5731 5730 5728 5726 5724 5722 5719 5717 5715 5713 5710
5752 5750 5749 5747 5745 5743 5741 5740 5739 5737 5734 5731 5732 5732 5730 5729 5724 5725 5731 5735 5736 5736 5736 5737 5737 5736 5736 5735 5735 5735 5734 5733 5732 5731 5729 5727 5725 5722 5720 5718 5715 5713 5711
5753 5752 5750 5748 5746 5744 5742 5741 5739 5737 5735 5733 5731 5730 5729 5727 5726 5722 5723 5728 5731 5733 5734 5735 5735 5735 5735 5735 5734 5734 5734 5733 5732 5730 5729 5727 5725 5723 5720 5718 5716 5714 5712
5754 5753 5751 5749 5747 5745 5743 5741 5740 5738 5736 5734 5732 5730 5728 5726 5724 5722 5721 5722 5724 5729 5732 5733 5733 5733 5734 5733 5733 5733 5733 5732 5731 5729 5728 5726 5724 5722 5720 5718 5716 5714 5711
5754 5753 5752 5749 5747 5746 5744 5742 5739 5737 5735 5733 5732 5731 5730 5729 5728 5725 5722 5721 5721 5725 5727 5729 5731 5731 5731 5731 5731 5731 5730 5729 5729 5728 5726 5725 5723 5721 5719 5717 5715 5712 5710
5756 5755 5752 5750 5748 5746 5744 5741 5739 5737 5736 5734 5733 5731 5730 5729 5727 5726 5723 5720 5718 5720 5722 5725 5727 5728 5728 5727 5728 5727 5726 5726 5726 5725 5724 5722 5720 5718 5716 5714 5712 5710 5708
5758 5756 5753 5751 5748 5746 5744 5741 5738 5736 5735 5733 5732 5730 5729 5729 5727 5726 5724 5721 5717 5715 5718 5721 5722 5724 5723 5723 5723 5723 5722 5722 5721 5721 5720 5718 5716 5714 5712 5711 5709 5706 5704
5757 5754 5752 5750 5747 5745 5743 5740 5737 5735 5733 5732 5730 5729 5727 5726 5725 5724 5722 5720 5718 5716 5715 5719 5719 5719 5719 5719 5719 5718 5718 5717 5717 5716 5715 5713 5711 5709 5708 5706 5704 5702 5700
5756 5753 5750 5748 5745 5743 5741 5738 5736 5734 5731 5729 5728 5726 5725 5724 5722 5721 5719 5717 5716 5714 5712 5715 5714 5715 5714 5714 5714 5713 5713 5712 5712 5711 5710 5708 5706 5704 5702 5700 5699 5697 5696
5755 5752 5749 5745 5743 5741 5738 5736 5733 5731 5729 5726 5724 5722 5721 5720 5718 5717 5715 5714 5713 5711 5709 5709 5709 5708 5708 5709 5709 5708 5707 5707 5706 5705 5704 5702 5701 5699 5697 5695 5693 5692 5690
5753 5751 5747 5744 5741 5739 5737 5734 5732 5729 5726 5724 5722 5719 5717 5716 5714 5713 5711 5710 5709 5709 5707 5705 5704 5703 5703 5703 5702 5701 5701 5700 5700 5699 5697 5696 5694 5693 5691 5689 5687 5685 5684
5753 5750 5746 5743 5739 5737 5735 5733 5730 5727 5724 5721 5719 5716 5714 5711 5710 5709 5708 5706 5705 5704 5702 5700 5699 5698 5697 5696 5695 5693 5692 5692 5691 5691 5689 5688 5687 5685 5684 5682 5680 5678 5677
5753 5748 5744 5740 5737 5734 5732 5730 5728 5725 5721 5718 5715 5713 5710 5708 5706 5704 5703 5701 5700 5698 5696 5694 5693 5691 5690 5688 5688 5687 5684 5684 5683 5682 5681 5680 5678 5677 5675 5674 5672 5670 5669
5749 5744 5741 5737 5734 5731 5729 5726 5724 5721 5717 5714 5710 5708 5706 5703 5701 5699 5697 5696 5694 5692 5690 5688 5687 5685 5684 5683 5681 5679 5677 5676 5675 5674 5672 5671 5670 5668 5666 5665 5663 5662 5661
5745 5741 5737 5734 5730 5727 5725 5722 5719 5716 5713 5709 5705 5702 5700 5698 5695 5693 5691 5690 5688 5686 5684 5682 5680 5679 5678 5677 5675 5673 5671 5670 5668 5666 5664 5663 5661 5660 5658 5656 5655 5653 5652
5740 5736 5733 5729 5726 5723 5720 5717 5713 5710 5707 5703 5700 5696 5693 5691 5689 5686 5684 5682 5680 5678 5677 5675 5673 5672 5671 5670 5668 5666 5665 5662 5660 5658 5656 5654 5653 5651 5649 5647 5646 5644 5642
5733 5730 5726 5723 5720 5717 5714 5710 5707 5704 5700 5696 5694 5690 5687 5684 5682 5680 5677 5674 5672 5670 5669 5668 5667 5665 5663 5662 5661 5659 5657 5655 5653 5651 5647 5646 5644 5641 5640 5639 5637 5635 5633
5727 5723 5719 5716 5713 5710 5707 5704 5701 5697 5693 5690 5686 5683 5680 5677 5674 5672 5670 5667 5665 5663 5661 5660 5658 5657 5656 5654 5652 5651 5649 5646 5644 5642 5639 5637 5635 5632 5632 5630 5628 5626 5623